Regional Weather Roundup
Issued by NWS

Home | Current Version | Previous Version | Text Only | Print | Product List | Glossary On
Versions: 1 2 3 4 5 6 7 8 9 10 11 12 13 14 15 16 17 18 19 20 21 22 23 24 25 26 27 28 29 30 31 32 33 34 35 36 37 38 39 40 41 42 43 44 45 46 47 48 49 50
000
ASCA44 KEWX 220920
RWRMX

LATIN AMERICA AND CARIBBEAN REGIONAL WEATHER ROUNDUP
NATIONAL WEATHER SERVICE AUSTIN/SAN ANTONIO TX
400 AM CDT WED MAY 22 2019

NOTE: "FAIR" INDICATED FEW OR NO CLOUDS BELOW 12,000 FEET WITH NO
SIGNIFICANT WEATHER AND/OR OBSTRUCTIONS TO VISIBILITY.

BAJA CALIFORNIA

CITY           SKY/WX    TMP DP  RH WIND       PRES   REMARKS
MEXICALI         N/A    N/A N/A N/A MISG        N/A
S.J. DEL CABO    N/A    N/A N/A N/A MISG        N/A
TIJUANA        CLOUDY    55  50  82 W12       29.84F

NORTHWESTERN MEXICO

CITY           SKY/WX    TMP DP  RH WIND       PRES   REMARKS
CULIACAN       CLEAR     64  57  77 CALM      29.78
HERMOSILLO     CLEAR     68  46  45 SE3       29.76

NORTHEASTERN MEXICO

CITY           SKY/WX    TMP DP  RH WIND       PRES   REMARKS
MONCLOVA         N/A    N/A N/A N/A MISG        N/A
MONTERREY      CLEAR     75  73  94 E7        29.62F
REYNOSA          N/A    N/A N/A N/A MISG        N/A
CD. VICTORIA     N/A    N/A N/A N/A MISG        N/A

WESTERN MEXICO

CITY           SKY/WX    TMP DP  RH WIND       PRES   REMARKS
AGUASCALIENTES   N/A    N/A N/A N/A MISG        N/A
COLIMA           N/A    N/A N/A N/A MISG        N/A
GUADALAJARA    CLEAR     64  30  27 W7        30.05
MAZATLAN       CLEAR     63  61  94 CALM      29.80S
P. VALLARTA    CLEAR     70  66  88 NE3       29.79F
URUAPAN          N/A    N/A N/A N/A MISG        N/A
ZACATECAS      CLEAR     55  25  30 CALM      30.11F

CENTRAL MEXICO

CITY           SKY/WX    TMP DP  RH WIND       PRES   REMARKS
CUERNAVACA       N/A    N/A N/A N/A MISG        N/A
MEXICO CITY    MOCLDY    61  48  63 CALM      30.22F
MORELIA        PTCLDY    68  46  45 SW6       30.11
POZA RICA        N/A    N/A N/A N/A MISG        N/A
QUERETARO      CLEAR     64  41  42 NW7       30.16S
S. LUIS POTOSI CLEAR     68  54  60 W6        30.06S
TOLUCA         PTCLDY    52  41  66 NE3       30.28F

SOUTHERN MEXICO

CITY           SKY/WX    TMP DP  RH WIND       PRES   REMARKS
ACAPULCO       PTCLDY    77  73  88 W2        29.80S
B. DE HUATULCO   N/A    N/A N/A N/A MISG        N/A
P. ESCONDIDO     N/A    N/A N/A N/A MISG        N/A
VERACRUZ         N/A    N/A N/A N/A MISG        N/A

YUCATAN PENINSULA

CITY           SKY/WX    TMP DP  RH WIND       PRES   REMARKS
CAMPECHE         N/A    N/A N/A N/A MISG        N/A
CANCUN         PTCLDY    81  75  83 E12       29.86F
CHETUMAL       MOCLDY    82  75  78 E12       29.80
CD. DEL CARMEN   N/A    N/A N/A N/A MISG        N/A
COZUMEL        PTCLDY    79  75  89 SE6       29.84F
MERIDA         CLEAR     79  73  83 SE13      29.82S
MINATITLAN       N/A    N/A N/A N/A MISG        N/A
TAPACHULA      MOCLDY    77  77 100 CALM      29.79F

CENTRAL AMERICA

CITY           SKY/WX    TMP DP  RH WIND       PRES   REMARKS

CARIBBEAN

CITY           SKY/WX    TMP DP  RH WIND       PRES   REMARKS
CURACAO        PTCLDY    81  72  74 SE13      29.89R
KINGSTON       PTCLDY    81  70  69 NE8       29.89S
NASSAU         PTCLDY    75  68  78 E5        30.00S
SAN JUAN       PTCLDY    79  72  78 CALM      29.96S
SANTO DOMINGO  PTCLDY    75  72  88 NE5       29.92S
ST. CROIX      PTCLDY    79  72  78 E10       29.97
ST. MAARTEN    PTCLDY    79  73  83 E8        29.97S
ST. THOMAS     CLEAR     81  72  74 E9        29.97R

$$





USA.gov is the U.S. government's official web portal to all federal, state and local government web resources and services.